This is the latest recevied weather packets stored in our database for station/object N3SBK. If no packets are shown the sender has not sent any weather packets the latest 10 day(s).
| Time | Temp. | Humidity | Pressure | Rain* | Wind** | Luminosity | Snow |
|---|---|---|---|---|---|---|---|
| 1788018638 | 24.44° C | 47% | 1016.5 hPa | 0 mm | - | 630 W/m² | - |
| 1788018337 | 23.89° C | 42% | 1016.6 hPa | 0 mm | - | 622 W/m² | - |
| 1788018033 | 23.33° C | 44% | 1016.7 hPa | 0 mm | - | 615 W/m² | - |
| 1788017729 | 23.33° C | 46% | 1016.8 hPa | 0 mm | - | 607 W/m² | - |
| 1788017425 | 23.33° C | 44% | 1016.7 hPa | 0 mm | - | 600 W/m² | - |
| 1788017122 | 23.33° C | 44% | 1016.6 hPa | 0 mm | - | 592 W/m² | - |
| 1788016821 | 22.22° C | 45% | 1016.7 hPa | 0 mm | - | 580 W/m² | - |
| 1788016519 | 21.67° C | 51% | 1016.6 hPa | 0 mm | - | 573 W/m² | - |
| 1788016214 | 21.67° C | 45% | 1016.8 hPa | 0 mm | - | 459 W/m² | - |
| 1788015913 | 20.56° C | 49% | 1016.8 hPa | 0 mm | - | 131 W/m² | - |
| 1788015608 | 20° C | 62% | 1016.7 hPa | 0 mm | - | 167 W/m² | - |
| 1788015303 | 19.44° C | 62% | 1016.7 hPa | 0 mm | - | 42 W/m² | - |
| 1788015002 | 19.44° C | 69% | 1016.8 hPa | 0 mm | - | 57 W/m² | - |
| 1788014701 | 18.89° C | 66% | 1017 hPa | 0 mm | - | 31 W/m² | - |
| 1788014396 | 18.33° C | 69% | 1016.9 hPa | 0 mm | - | 30 W/m² | - |
| 1788014092 | 17.78° C | 70% | 1016.9 hPa | 0 mm | - | 30 W/m² | - |
| 1788013790 | 17.78° C | 77% | 1017 hPa | 0 mm | - | 29 W/m² | - |
| 1788013485 | 17.22° C | 80% | 1016.9 hPa | 0 mm | - | 29 W/m² | - |
| 1788013185 | 16.67° C | 79% | 1016.7 hPa | 0 mm | - | 28 W/m² | - |
| 1788012884 | 16.67° C | 78% | 1016.5 hPa | 0 mm | - | 27 W/m² | - |
| 1788012579 | 16.11° C | 82% | 1016.8 hPa | 0 mm | - | 27 W/m² | - |
| 1788012274 | 16.11° C | 83% | 1016.8 hPa | 0 mm | - | 27 W/m² | - |
| 1788011973 | 15.56° C | 81% | 1016.8 hPa | 0 mm | - | 27 W/m² | - |
| 1788011672 | 15.56° C | 81% | 1016.6 hPa | 0 mm | - | 27 W/m² | - |
| 1788011368 | 15° C | 86% | 1016.7 hPa | 0 mm | - | 26 W/m² | - |
* Rain latest hour (hover to see other rain measurements)
** Current wind speed in m/s (hover to see current wind gust speed)